TimeCST,TemperatureF,Dew PointF,Humidity,Sea Level PressureIn,VisibilityMPH,Wind Direction,Wind SpeedMPH,Gust SpeedMPH,PrecipitationIn,Events,Conditions,WindDirDegrees,DateUTC
12:23 AM,35.6,35.6,100,29.48,1.8,NE,12.7,-,0.00,,Overcast,40,2012-12-20 06:23:00
12:55 AM,36.0,36.0,100,29.48,2.0,NNE,13.8,-,0.01,,Overcast,20,2012-12-20 06:55:00
1:55 AM,36.0,36.0,100,29.42,2.5,NE,18.4,-,0.01,Rain,Light Rain,40,2012-12-20 07:55:00
2:02 AM,35.6,35.6,100,29.39,3.0,NE,17.3,-,0.00,,Overcast,50,2012-12-20 08:02:00
2:48 AM,35.6,35.6,100,29.36,2.5,NNE,16.1,-,0.00,,Overcast,30,2012-12-20 08:48:00
2:55 AM,36.0,36.0,100,29.38,2.0,NNE,16.1,-,0.00,,Overcast,30,2012-12-20 08:55:00
3:36 AM,35.6,35.6,100,29.32,1.8,NNE,19.6,26.5,0.00,Snow,Light Snow,20,2012-12-20 09:36:00
3:41 AM,35.6,35.6,100,29.32,2.0,NNE,20.7,27.6,0.01,Snow-Thunderstorm,Light Thunderstorms and Snow,20,2012-12-20 09:41:00
3:55 AM,35.1,35.1,100,29.34,4.0,North,18.4,-,0.02,,Overcast,10,2012-12-20 09:55:00
4:13 AM,35.6,35.6,100,29.31,5.0,North,16.1,24.2,0.00,Rain,Light Rain,10,2012-12-20 10:13:00
4:26 AM,35.6,35.6,100,29.27,2.5,North,21.9,28.8,0.04,Rain-Thunderstorm,Rain,10,2012-12-20 10:26:00
4:34 AM,35.6,35.6,100,29.30,4.0,North,16.1,27.6,0.05,Rain-Thunderstorm,Light Rain,360,2012-12-20 10:34:00
4:49 AM,35.6,35.6,100,29.29,2.5,North,19.6,27.6,0.13,Rain-Thunderstorm,Thunderstorms and Rain,360,2012-12-20 10:49:00
4:50 AM,35.6,35.6,100,29.28,3.0,North,18.4,27.6,0.13,Rain-Thunderstorm,Thunderstorms and Rain,10,2012-12-20 10:50:00
4:55 AM,35.1,35.1,100,29.31,5.0,North,20.7,27.6,0.13,Rain-Thunderstorm,Light Thunderstorms and Rain,10,2012-12-20 10:55:00
5:03 AM,35.6,35.6,100,29.28,8.0,North,19.6,26.5,0.00,,Overcast,360,2012-12-20 11:03:00
5:55 AM,34.0,33.1,96,29.31,10.0,North,26.5,34.5,0.01,,Overcast,360,2012-12-20 11:55:00
6:39 AM,33.8,33.8,100,29.29,10.0,North,25.3,39.1,0.00,Rain,Light Rain,360,2012-12-20 12:39:00
6:55 AM,33.1,32.0,96,29.33,6.0,North,21.9,31.1,0.03,Rain,Rain,350,2012-12-20 12:55:00
7:16 AM,32.0,32.0,100,29.31,1.8,NNW,25.3,38.0,0.04,Snow,Light Snow,340,2012-12-20 13:16:00
7:22 AM,32.0,32.0,100,29.32,0.8,North,21.9,33.4,0.06,Snow,Light Snow,350,2012-12-20 13:22:00
7:31 AM,32.0,32.0,100,29.33,0.5,NNW,28.8,39.1,0.08,Fog-Snow,Snow,340,2012-12-20 13:31:00
7:55 AM,30.9,30.9,100,29.36,0.2,NNW,24.2,39.1,0.14,Fog-Snow,Heavy Snow,340,2012-12-20 13:55:00
8:26 AM,32.0,32.0,100,29.36,0.2,NNW,26.5,48.3,0.06,Fog-Snow,Heavy Snow,340,2012-12-20 14:26:00
8:55 AM,30.9,30.9,100,29.42,0.2,NNW,23.0,47.2,0.13,Fog-Snow,Heavy Snow,330,2012-12-20 14:55:00
9:27 AM,30.2,30.2,100,29.44,0.2,NNW,24.2,46.0,0.05,Fog-Snow,Heavy Snow,340,2012-12-20 15:27:00
9:55 AM,30.0,28.9,96,29.49,0.2,NW,25.3,38.0,0.08,Fog-Snow,Snow,320,2012-12-20 15:55:00
10:55 AM,28.9,27.0,92,29.55,0.2,NW,26.5,42.6,0.02,Fog-Snow,Snow,320,2012-12-20 16:55:00
11:09 AM,28.4,26.6,93,29.52,0.2,NW,29.9,48.3,0.00,Fog-Snow,Snow,320,2012-12-20 17:09:00
11:38 AM,28.4,26.6,93,29.54,0.5,NW,28.8,39.1,0.01,Fog-Snow,Light Snow,310,2012-12-20 17:38:00
11:49 AM,28.4,24.8,86,29.56,0.8,NW,28.8,43.7,0.01,Snow,Light Snow,310,2012-12-20 17:49:00
11:53 AM,28.4,24.8,86,29.56,0.5,NW,25.3,44.9,0.01,Fog-Snow,Light Snow,310,2012-12-20 17:53:00
11:55 AM,28.0,25.0,88,29.60,0.5,NW,23.0,44.9,0.01,Fog-Snow,Light Snow,310,2012-12-20 17:55:00
12:03 PM,26.6,24.8,93,29.57,0.8,NW,31.1,41.4,0.00,Snow,Light Snow,310,2012-12-20 18:03:00
12:11 PM,26.6,24.8,93,29.58,0.5,NW,27.6,41.4,0.00,Fog-Snow,Light Snow,310,2012-12-20 18:11:00
12:55 PM,26.1,23.0,88,29.66,0.8,NW,27.6,46.0,0.00,Snow,Light Snow,310,2012-12-20 18:55:00
1:01 PM,26.6,23.0,86,29.63,0.5,NW,33.4,47.2,0.00,Fog-Snow,Light Snow,310,2012-12-20 19:01:00
1:13 PM,26.6,21.2,80,29.64,0.8,WNW,29.9,44.9,0.00,Snow,Light Snow,300,2012-12-20 19:13:00
1:38 PM,24.8,21.2,86,29.67,0.5,WNW,26.5,49.5,0.00,Fog-Snow,Light Snow,300,2012-12-20 19:38:00
1:44 PM,24.8,21.2,86,29.68,0.8,WNW,21.9,44.9,0.00,,Overcast,300,2012-12-20 19:44:00
1:52 PM,24.8,21.2,86,29.69,1.0,WNW,26.5,43.7,0.00,Snow,Light Snow,300,2012-12-20 19:52:00
1:55 PM,25.0,21.0,85,29.73,0.8,WNW,27.6,43.7,0.00,Snow,Light Snow,300,2012-12-20 19:55:00
2:06 PM,24.8,21.2,86,29.69,1.8,WNW,28.8,39.1,0.00,,Overcast,290,2012-12-20 20:06:00
2:53 PM,24.8,19.4,80,29.75,0.8,WNW,27.6,42.6,0.00,,Overcast,300,2012-12-20 20:53:00
2:55 PM,24.1,19.9,84,29.79,0.8,WNW,27.6,42.6,0.00,,Overcast,300,2012-12-20 20:55:00
3:03 PM,24.8,19.4,80,29.76,1.0,WNW,25.3,40.3,0.00,Snow,Light Snow,300,2012-12-20 21:03:00
3:38 PM,24.8,19.4,80,29.79,3.0,WNW,24.2,39.1,0.00,,Overcast,300,2012-12-20 21:38:00
3:51 PM,24.8,19.4,80,29.80,2.5,WNW,24.2,35.7,0.00,,Overcast,300,2012-12-20 21:51:00
3:55 PM,25.0,19.0,78,29.85,3.0,WNW,25.3,39.1,0.00,,Overcast,290,2012-12-20 21:55:00
4:02 PM,24.8,19.4,80,29.82,2.5,WNW,24.2,39.1,0.00,,Mostly Cloudy,300,2012-12-20 22:02:00
4:12 PM,24.8,19.4,80,29.83,3.0,WNW,18.4,35.7,0.00,,Mostly Cloudy,300,2012-12-20 22:12:00
4:55 PM,25.0,19.0,78,29.90,5.0,WNW,16.1,31.1,0.00,,Mostly Cloudy,300,2012-12-20 22:55:00
5:41 PM,24.8,17.6,74,29.89,9.0,WNW,21.9,31.1,0.00,,Scattered Clouds,300,2012-12-20 23:41:00
5:55 PM,24.1,17.1,75,29.94,6.0,WNW,19.6,33.4,0.00,,Scattered Clouds,300,2012-12-20 23:55:00
6:55 PM,23.0,16.0,74,29.97,9.0,WNW,24.2,38.0,0.00,,Clear,300,2012-12-21 00:55:00
7:55 PM,23.0,15.1,72,30.01,10.0,WNW,21.9,32.2,N/A,,Clear,300,2012-12-21 01:55:00
8:55 PM,21.0,14.0,74,30.03,10.0,WNW,19.6,28.8,N/A,,Clear,300,2012-12-21 02:55:00
9:55 PM,19.9,12.9,74,30.05,10.0,WNW,19.6,26.5,N/A,,Clear,290,2012-12-21 03:55:00
10:55 PM,19.9,12.0,71,30.07,10.0,WNW,18.4,26.5,N/A,,Clear,290,2012-12-21 04:55:00
11:55 PM,19.0,12.0,74,30.10,10.0,WNW,18.4,-,N/A,,Clear,290,2012-12-21 05:55:00